Home   Weather   Norway   Oslo   Past weeks
Flag for Norway

Past Weather in Oslo, Norway — Yesterday and Last 2 Weeks

Currently: 59 °F. Scattered clouds. (Weather station: Oslo Gardermoen Airport, Norway). See more current weather

Past Weather in Oslo — Graph

°F

Oslo Temperature Yesterday

Maximum temperature yesterday: 61 °F (at 3:20 pm)
Minimum temperature yesterday: 52 °F (at 7:20 am)
Average temperature yesterday: 57 °F

High & Low Weather Summary for the Past Weeks

 TemperatureHumidityPressure
High75 °F (Jun 9, 4:50 pm)100% (Jun 9, 3:20 am)30.09 "Hg (Jun 9, 3:20 am)
Low45 °F (Jun 16, 2:50 am)24% (Jun 12, 4:20 pm)29.56 "Hg (Jun 14, 4:50 pm)
Average61 °F71%29.87 "Hg
* Reported Jun 8 7:20 am — Jun 23 7:50 am, Oslo. Weather by CustomWeather, © 2021

Note: Actual official high and low records may vary slightly from our data, if they occured in-between our weather recording intervals... More about our weather records

Oslo Weather History for the Previous 24 Hours

Scroll right to see more
 ConditionsComfort  
Time TempWeatherWind HumidityBarometerVisibility
7:50 am
Wed, Jun 23
57 °FPartly sunny.7 mph77%30.04 "HgN/A
7:20 am55 °FPartly sunny.6 mph82%30.04 "HgN/A
6:50 am55 °FPartly sunny.6 mph82%30.04 "HgN/A
6:20 am55 °FBroken clouds.6 mph82%30.04 "HgN/A
5:50 am54 °FPartly sunny.3 mph88%30.04 "HgN/A
5:20 am54 °FPartly sunny.3 mph88%30.04 "HgN/A
4:50 am54 °FPartly sunny.5 mph82%30.04 "HgN/A
4:20 am54 °FPartly sunny.3 mph82%30.04 "HgN/A
3:50 am54 °FPartly sunny.3 mph88%30.04 "HgN/A
3:20 am54 °FOvercast.5 mph88%30.04 "HgN/A
2:50 am54 °FOvercast.5 mph88%30.04 "HgN/A
2:20 am54 °FPartly cloudy.5 mph88%30.04 "HgN/A
1:50 am55 °FPassing clouds.5 mph82%30.04 "HgN/A
1:20 am54 °FPartly cloudy.3 mph88%30.04 "HgN/A
12:50 am55 °FPassing clouds.3 mph82%30.04 "HgN/A
12:20 am55 °FPassing clouds.3 mph77%30.04 "HgN/A
11:50 pm
Tue, Jun 22
55 °FClear.6 mph77%30.04 "Hg10 mi
11:20 pm55 °FClear.6 mph82%30.01 "Hg10 mi
10:50 pm55 °FPassing clouds.6 mph82%30.01 "HgN/A
10:20 pm57 °FScattered showers. Broken clouds.7 mph77%30.01 "HgN/A
9:50 pm57 °FPartly sunny.7 mph77%30.01 "HgN/A
9:20 pm57 °FPartly sunny.9 mph77%30.01 "HgN/A
8:50 pm59 °FPartly sunny.7 mph72%30.01 "HgN/A
8:20 pm59 °FBroken clouds.7 mph72%30.01 "HgN/A
7:50 pm59 °FSunny.8 mph72%30.01 "Hg10 mi
7:20 pm59 °FSunny.8 mph72%29.98 "Hg10 mi
6:50 pm61 °FBroken clouds.9 mph63%29.98 "HgN/A
6:20 pm61 °FPartly sunny.7 mph68%29.98 "HgN/A
5:50 pm61 °FPartly sunny.13 mph68%29.98 "HgN/A
5:20 pm61 °FPartly sunny.12 mph68%29.98 "HgN/A
4:50 pm61 °FPartly sunny.13 mph68%29.95 "HgN/A
4:20 pm61 °FPartly sunny.14 mph68%29.95 "HgN/A
3:50 pm61 °FPartly sunny.13 mph63%29.95 "HgN/A
3:20 pm61 °FScattered showers. Partly sunny.15 mph63%29.95 "HgN/A
2:50 pm59 °FPartly sunny.16 mph68%29.95 "HgN/A
2:20 pm59 °FPartly sunny.15 mph68%29.95 "HgN/A
1:50 pm59 °FPartly sunny.14 mph68%29.95 "HgN/A
1:20 pm57 °FPartly sunny.16 mph72%29.95 "HgN/A
12:50 pm57 °FPartly sunny.13 mph72%29.95 "HgN/A
12:20 pm57 °FBroken clouds.14 mph72%29.92 "HgN/A
11:50 am57 °FBroken clouds.15 mph77%29.92 "HgN/A
11:20 am55 °FBroken clouds.16 mph77%29.92 "HgN/A
10:50 am55 °FPartly sunny.17 mph77%29.92 "HgN/A
10:20 am54 °FLight rain. Partly sunny.18 mph88%29.89 "HgN/A
9:20 am54 °FDrizzle. Broken clouds.16 mph88%29.89 "HgN/A
8:50 am54 °FDrizzle. Partly sunny.15 mph88%29.89 "Hg5 mi
8:20 am54 °FLight rain. Partly sunny.14 mph88%29.89 "Hg5 mi
Weather by CustomWeather, © 2021

See weather overview